MON743 LEMG-EGKK

Flight info

Callsign MON743
Flight time 2h 32m
Altitude 34000
Route BLN N865 MORAL/N0449F360 N865 VTB N867 NENEM DCT YURZI DCT ERIGA DCT ARTIV DCT REVTU/N0445F340 UP88 VASUX
Aircraft A306/H-SDE3FGHIRWY/LB1

Departure

Time 2026-05-05 13:10
Airport Málaga-Costa del Sol Airport (LEMG)

Arrival

Time 2026-05-05 15:42
Airport London Gatwick Airport (EGKK)
Time Latitude Longitude Altitude Speed Heading
2026-05-05 11:56 36.67631 -4.49423 48 ft 0 kts 41°
2026-05-05 13:02 36.67630 -4.49423 48 ft 1 kts 41°
2026-05-05 13:03 36.67614 -4.49440 46 ft 4 kts 20°
2026-05-05 13:03 36.67592 -4.49438 44 ft 4 kts 321°
2026-05-05 13:03 36.67578 -4.49422 42 ft 1 kts 311°
2026-05-05 13:03 36.67576 -4.49419 44 ft 0 kts 311°
2026-05-05 13:06 36.67578 -4.49421 44 ft 3 kts 311°
2026-05-05 13:06 36.67621 -4.49512 48 ft 20 kts 297°
2026-05-05 13:06 36.67722 -4.49691 48 ft 29 kts 314°
2026-05-05 13:06 36.67893 -4.49726 48 ft 26 kts 21°
2026-05-05 13:07 36.68030 -4.49597 48 ft 24 kts 42°
2026-05-05 13:07 36.68154 -4.49462 48 ft 23 kts 40°
2026-05-05 13:07 36.68268 -4.49325 46 ft 22 kts 62°
2026-05-05 13:07 36.68236 -4.49163 46 ft 19 kts 118°
2026-05-05 13:08 36.68178 -4.49018 46 ft 20 kts 116°
2026-05-05 13:08 36.68091 -4.48817 46 ft 32 kts 117°
2026-05-05 13:08 36.67984 -4.48549 46 ft 34 kts 117°
2026-05-05 13:08 36.67873 -4.48294 45 ft 33 kts 119°
2026-05-05 13:09 36.67834 -4.48082 42 ft 21 kts 39°
2026-05-05 13:09 36.67980 -4.48101 44 ft 33 kts 299°
2026-05-05 13:09 36.68147 -4.48504 44 ft 82 kts 297°
2026-05-05 13:09 36.68500 -4.49346 51 ft 132 kts 296°
2026-05-05 13:10 36.68961 -4.50456 579 ft 137 kts 299°
2026-05-05 13:10 36.69465 -4.51397 1497 ft 117 kts 306°
2026-05-05 13:10 36.69933 -4.52244 2051 ft 114 kts 301°
2026-05-05 13:10 36.70377 -4.53088 2426 ft 129 kts 303°
2026-05-05 13:11 36.71047 -4.54036 2673 ft 164 kts 315°
2026-05-05 13:11 36.71974 -4.55046 3171 ft 189 kts 316°
2026-05-05 13:11 36.72973 -4.56222 3937 ft 204 kts 314°
2026-05-05 13:11 36.73980 -4.57499 5029 ft 207 kts 313°
2026-05-05 13:12 36.74999 -4.58805 6093 ft 215 kts 318°
2026-05-05 13:12 36.76330 -4.59687 7168 ft 221 kts 338°
2026-05-05 13:12 36.77815 -4.60255 8231 ft 225 kts 341°
2026-05-05 13:12 36.79340 -4.60775 9222 ft 230 kts 342°
2026-05-05 13:13 36.80956 -4.61033 10200 ft 241 kts
2026-05-05 13:13 36.82603 -4.60375 10961 ft 263 kts 28°
2026-05-05 13:13 36.84087 -4.58913 11639 ft 280 kts 38°
2026-05-05 13:13 36.85554 -4.57244 12391 ft 290 kts 39°
2026-05-05 13:14 36.87066 -4.55524 13174 ft 298 kts 38°
2026-05-05 13:14 36.88621 -4.53776 13938 ft 304 kts 38°
2026-05-05 13:14 36.90202 -4.52013 14687 ft 307 kts 37°
2026-05-05 13:14 36.91805 -4.50232 15466 ft 311 kts 37°
2026-05-05 13:15 36.93434 -4.48429 16242 ft 314 kts 37°
2026-05-05 13:15 36.95062 -4.46631 16970 ft 318 kts 36°
2026-05-05 13:15 36.96730 -4.44788 17718 ft 321 kts 36°
2026-05-05 13:15 36.98473 -4.43029 18399 ft 323 kts 30°
2026-05-05 13:16 37.00378 -4.41444 18713 ft 336 kts 27°
2026-05-05 13:16 37.02407 -4.39842 18962 ft 352 kts 27°
2026-05-05 13:16 37.04527 -4.38177 19215 ft 367 kts 27°
2026-05-05 13:16 37.06727 -4.36438 19469 ft 381 kts 27°
2026-05-05 13:17 37.09018 -4.34621 19700 ft 395 kts 27°
2026-05-05 13:17 37.11375 -4.32746 19927 ft 408 kts 27°
2026-05-05 13:17 37.13812 -4.30806 20176 ft 421 kts 27°
2026-05-05 13:17 37.16316 -4.28809 20424 ft 433 kts 27°
2026-05-05 13:18 37.18889 -4.26755 20659 ft 443 kts 28°
2026-05-05 13:18 37.21518 -4.24654 21020 ft 450 kts 28°
2026-05-05 13:18 37.24141 -4.22556 21438 ft 453 kts 27°
2026-05-05 13:18 37.26806 -4.20421 21874 ft 457 kts 28°
2026-05-05 13:19 37.29496 -4.18268 22326 ft 460 kts 28°
2026-05-05 13:19 37.32211 -4.16094 22726 ft 464 kts 28°
2026-05-05 13:19 37.34941 -4.13906 23169 ft 467 kts 28°
2026-05-05 13:19 37.37691 -4.11697 23580 ft 469 kts 28°
2026-05-05 13:20 37.40452 -4.09480 23891 ft 473 kts 28°
2026-05-05 13:20 37.43236 -4.07243 24274 ft 475 kts 27°
2026-05-05 13:20 37.46031 -4.04994 24560 ft 478 kts 27°
2026-05-05 13:20 37.48841 -4.02731 24856 ft 481 kts 27°
2026-05-05 13:21 37.51670 -4.00450 25135 ft 484 kts 27°
2026-05-05 13:21 37.54527 -3.98144 25405 ft 488 kts 27°
2026-05-05 13:21 37.57387 -3.95834 25686 ft 490 kts 27°
2026-05-05 13:21 37.60264 -3.93509 25949 ft 493 kts 27°
2026-05-05 13:22 37.63159 -3.91169 26212 ft 496 kts 27°
2026-05-05 13:22 37.66038 -3.88838 26492 ft 499 kts 27°
2026-05-05 13:22 37.68967 -3.86465 26670 ft 503 kts 27°
2026-05-05 13:22 37.71915 -3.84074 26941 ft 505 kts 27°
2026-05-05 13:23 37.74882 -3.81662 27172 ft 507 kts 27°
2026-05-05 13:23 37.77857 -3.79243 27312 ft 511 kts 27°
2026-05-05 13:23 37.79842 -3.77628 27438 ft 513 kts 27°
2026-05-05 13:23 37.82884 -3.75258 27677 ft 511 kts 22°
2026-05-05 13:24 37.86134 -3.73586 27922 ft 503 kts 12°
2026-05-05 13:24 37.89477 -3.72277 28225 ft 501 kts 10°
2026-05-05 13:24 37.92823 -3.71018 28531 ft 502 kts
2026-05-05 13:24 37.96179 -3.69755 28845 ft 502 kts
2026-05-05 13:25 37.99522 -3.68489 29169 ft 503 kts
2026-05-05 13:25 38.02883 -3.67210 29496 ft 503 kts
2026-05-05 13:25 38.06235 -3.65931 29810 ft 503 kts
2026-05-05 13:25 38.09586 -3.64650 30114 ft 504 kts
2026-05-05 13:26 38.12941 -3.63380 30419 ft 501 kts
2026-05-05 13:26 38.16312 -3.62463 30820 ft 490 kts 359°
2026-05-05 13:26 38.19664 -3.61921 31189 ft 484 kts 356°
2026-05-05 13:26 38.23023 -3.61541 31497 ft 481 kts 355°
2026-05-05 13:27 38.26356 -3.61244 31810 ft 480 kts 354°
2026-05-05 13:27 38.29680 -3.60974 32122 ft 479 kts 354°
2026-05-05 13:27 38.33003 -3.60699 32459 ft 478 kts 354°
2026-05-05 13:27 38.36322 -3.60410 32775 ft 478 kts 354°
2026-05-05 13:28 38.39644 -3.60104 33086 ft 477 kts 354°
2026-05-05 13:28 38.42910 -3.59795 33394 ft 477 kts 354°
2026-05-05 13:28 38.46211 -3.59479 33705 ft 476 kts 354°
2026-05-05 13:28 38.49510 -3.59159 33935 ft 476 kts 354°
2026-05-05 13:29 38.56048 -3.58512 33962 ft 466 kts 355°
2026-05-05 13:29 38.62502 -3.57877 33971 ft 463 kts 354°
2026-05-05 13:30 38.68922 -3.57257 33961 ft 461 kts 354°
2026-05-05 13:30 38.75289 -3.56639 33963 ft 461 kts 354°
2026-05-05 13:31 38.81689 -3.56013 33963 ft 461 kts 354°
2026-05-05 13:31 38.88076 -3.55380 33958 ft 455 kts 353°
2026-05-05 13:32 38.94334 -3.54754 33952 ft 448 kts 353°
2026-05-05 13:32 39.00554 -3.54150 33962 ft 448 kts 353°
2026-05-05 13:33 39.06763 -3.53542 33962 ft 448 kts 353°
2026-05-05 13:33 39.12979 -3.52924 33955 ft 448 kts 353°
2026-05-05 13:34 39.19188 -3.52305 33950 ft 447 kts 353°
2026-05-05 13:34 39.25355 -3.51691 33949 ft 447 kts 353°
2026-05-05 13:35 39.31565 -3.51070 33977 ft 447 kts 354°
2026-05-05 13:35 39.37737 -3.50448 33944 ft 444 kts 353°
2026-05-05 13:36 39.43887 -3.49830 33944 ft 443 kts 353°
2026-05-05 13:36 39.50039 -3.49215 33944 ft 443 kts 353°
2026-05-05 13:37 39.56188 -3.48598 33952 ft 442 kts 354°
2026-05-05 13:37 39.62320 -3.47978 33943 ft 441 kts 354°
2026-05-05 13:38 39.68433 -3.47366 33940 ft 440 kts 354°
2026-05-05 13:38 39.74503 -3.46759 33947 ft 440 kts 354°
2026-05-05 13:39 39.80633 -3.46003 33947 ft 445 kts 358°
2026-05-05 13:39 39.86776 -3.44791 33946 ft 447 kts 360°
2026-05-05 13:40 39.92926 -3.43480 33947 ft 447 kts 360°
2026-05-05 13:40 39.99100 -3.42201 33994 ft 450 kts
2026-05-05 13:41 40.05277 -3.40956 33950 ft 453 kts
2026-05-05 13:41 40.11520 -3.39702 33950 ft 453 kts
2026-05-05 13:42 40.17761 -3.38444 33949 ft 453 kts
2026-05-05 13:42 40.23951 -3.37195 33950 ft 453 kts
2026-05-05 13:43 40.30193 -3.35932 33958 ft 454 kts
2026-05-05 13:43 40.36444 -3.34665 33960 ft 454 kts
2026-05-05 13:44 40.42700 -3.33393 33961 ft 454 kts
2026-05-05 13:44 40.48955 -3.32121 33963 ft 454 kts
2026-05-05 13:45 40.55196 -3.30849 33958 ft 453 kts
2026-05-05 13:45 40.61431 -3.29576 33956 ft 453 kts
2026-05-05 13:46 40.67671 -3.28300 33951 ft 453 kts
2026-05-05 13:46 40.73904 -3.27023 33940 ft 453 kts
2026-05-05 13:47 40.80134 -3.25746 33923 ft 454 kts
2026-05-05 13:47 40.86336 -3.24462 33940 ft 453 kts
2026-05-05 13:48 40.92600 -3.23077 33938 ft 453 kts
2026-05-05 13:48 40.98775 -3.21678 33934 ft 453 kts
2026-05-05 13:49 41.05004 -3.20272 33947 ft 453 kts
2026-05-05 13:49 41.11226 -3.18875 33945 ft 453 kts
2026-05-05 13:50 41.17455 -3.17472 33946 ft 453 kts
2026-05-05 13:50 41.23670 -3.16069 33950 ft 453 kts
2026-05-05 13:51 41.29893 -3.14663 33954 ft 453 kts
2026-05-05 13:51 41.36061 -3.13268 33953 ft 452 kts
2026-05-05 13:52 41.42268 -3.11859 33954 ft 452 kts
2026-05-05 13:52 41.48464 -3.10451 33959 ft 452 kts
2026-05-05 13:53 41.54670 -3.09042 33961 ft 452 kts
2026-05-05 13:53 41.60874 -3.07636 33957 ft 452 kts
2026-05-05 13:54 41.67069 -3.06229 33963 ft 452 kts
2026-05-05 13:54 41.73228 -3.04825 33952 ft 452 kts
2026-05-05 13:55 41.79456 -3.03397 33958 ft 455 kts
2026-05-05 13:55 41.85703 -3.01955 33960 ft 455 kts
2026-05-05 13:56 41.91948 -3.00511 33959 ft 455 kts
2026-05-05 13:56 41.98195 -2.99067 33957 ft 455 kts
2026-05-05 13:57 42.04447 -2.97619 33967 ft 456 kts
2026-05-05 13:57 42.10694 -2.96168 33962 ft 456 kts
2026-05-05 13:58 42.16941 -2.94713 33974 ft 456 kts
2026-05-05 13:58 42.23196 -2.93252 33965 ft 456 kts
2026-05-05 13:59 42.32583 -2.91066 33968 ft 456 kts
2026-05-05 14:00 42.40901 -2.89113 33973 ft 456 kts
2026-05-05 14:00 42.48189 -2.88310 33977 ft 449 kts 354°
2026-05-05 14:01 42.54431 -2.88585 33977 ft 448 kts 353°
2026-05-05 14:01 42.60659 -2.89007 33983 ft 448 kts 353°
2026-05-05 14:02 42.66884 -2.89441 33972 ft 448 kts 353°
2026-05-05 14:02 42.73117 -2.89853 33975 ft 448 kts 353°
2026-05-05 14:03 42.79306 -2.90253 33988 ft 448 kts 353°
2026-05-05 14:03 42.85530 -2.90657 33975 ft 448 kts 353°
2026-05-05 14:04 42.91747 -2.91058 33978 ft 448 kts 353°
2026-05-05 14:04 42.97974 -2.91461 33981 ft 448 kts 353°
2026-05-05 14:05 43.04204 -2.91867 33998 ft 447 kts 353°
2026-05-05 14:05 43.10421 -2.92270 34008 ft 447 kts 353°
2026-05-05 14:06 43.16633 -2.92678 34014 ft 447 kts 353°
2026-05-05 14:06 43.22842 -2.93086 34021 ft 447 kts 353°
2026-05-05 14:07 43.29055 -2.93519 34015 ft 445 kts 351°
2026-05-05 14:07 43.35142 -2.94909 34023 ft 443 kts 345°
2026-05-05 14:08 43.40160 -2.96294 34033 ft 442 kts 345°
2026-05-05 14:08 43.47164 -2.98311 34009 ft 442 kts 345°
2026-05-05 14:09 43.52166 -2.99754 34000 ft 442 kts 345°
2026-05-05 14:09 43.58186 -3.01481 33992 ft 442 kts 345°
2026-05-05 14:10 43.64209 -3.03207 33980 ft 442 kts 345°
2026-05-05 14:10 43.70232 -3.04934 33983 ft 442 kts 345°
2026-05-05 14:11 43.76244 -3.06662 33976 ft 440 kts 345°
2026-05-05 14:11 43.82240 -3.08389 33973 ft 440 kts 346°
2026-05-05 14:12 43.88233 -3.10120 33971 ft 440 kts 346°
2026-05-05 14:12 43.94233 -3.11856 33967 ft 440 kts 346°
2026-05-05 14:13 44.00226 -3.13593 33974 ft 440 kts 346°
2026-05-05 14:13 44.06344 -3.14291 33968 ft 445 kts
2026-05-05 14:14 44.12427 -3.12892 33958 ft 447 kts 10°
2026-05-05 14:14 44.18506 -3.11031 33968 ft 447 kts 11°
2026-05-05 14:15 44.24587 -3.09097 33969 ft 447 kts 11°
2026-05-05 14:15 44.30658 -3.07193 33957 ft 447 kts 11°
2026-05-05 14:16 44.36747 -3.05307 33964 ft 447 kts 11°
2026-05-05 14:16 44.42825 -3.03428 33963 ft 448 kts 11°
2026-05-05 14:17 44.48880 -3.01552 33966 ft 448 kts 11°
2026-05-05 14:17 44.54966 -2.99661 33960 ft 448 kts 12°
2026-05-05 14:18 44.61059 -2.97763 33959 ft 448 kts 12°
2026-05-05 14:18 44.67150 -2.95862 33958 ft 448 kts 12°
2026-05-05 14:19 44.73229 -2.93961 33958 ft 447 kts 12°
2026-05-05 14:19 44.79315 -2.92053 33950 ft 447 kts 12°
2026-05-05 14:20 44.85395 -2.90143 33960 ft 447 kts 11°
2026-05-05 14:20 44.91434 -2.88241 33953 ft 447 kts 11°
2026-05-05 14:21 44.97517 -2.86321 33952 ft 447 kts 12°
2026-05-05 14:21 45.03588 -2.84402 33937 ft 447 kts 12°
2026-05-05 14:22 45.09669 -2.82473 33956 ft 447 kts 12°
2026-05-05 14:22 45.15746 -2.80543 33949 ft 447 kts 12°
2026-05-05 14:23 45.21823 -2.78609 33950 ft 446 kts 12°
2026-05-05 14:23 45.27881 -2.76677 33941 ft 446 kts 12°
2026-05-05 14:24 45.33898 -2.74753 33942 ft 446 kts 12°
2026-05-05 14:24 45.39965 -2.72809 33940 ft 446 kts 13°
2026-05-05 14:25 45.46024 -2.70864 33939 ft 446 kts 13°
2026-05-05 14:25 45.52098 -2.68909 33935 ft 448 kts 13°
2026-05-05 14:26 45.58172 -2.66950 33936 ft 448 kts 13°
2026-05-05 14:26 45.64247 -2.64986 33918 ft 446 kts 13°
2026-05-05 14:27 45.70305 -2.63023 33927 ft 446 kts 13°
2026-05-05 14:27 45.76359 -2.61058 33922 ft 445 kts 14°
2026-05-05 14:28 45.82381 -2.59100 33927 ft 442 kts 14°
2026-05-05 14:28 45.88336 -2.57157 33916 ft 441 kts 14°
2026-05-05 14:29 45.94329 -2.55198 33923 ft 442 kts 13°
2026-05-05 14:29 46.00323 -2.53234 33920 ft 441 kts 14°
2026-05-05 14:30 46.06314 -2.51266 33915 ft 441 kts 14°
2026-05-05 14:30 46.12305 -2.49295 33920 ft 441 kts 14°
2026-05-05 14:31 46.18331 -2.47546 33917 ft 442 kts
2026-05-05 14:31 46.24432 -2.46436 33913 ft 442 kts
2026-05-05 14:32 46.30551 -2.45439 33914 ft 442 kts
2026-05-05 14:32 46.36671 -2.44456 33915 ft 442 kts
2026-05-05 14:33 46.42797 -2.43460 33914 ft 443 kts
2026-05-05 14:33 46.48928 -2.42453 33907 ft 443 kts
2026-05-05 14:34 46.55007 -2.41451 33902 ft 443 kts
2026-05-05 14:34 46.61156 -2.40434 33907 ft 446 kts
2026-05-05 14:35 46.67322 -2.39414 33905 ft 446 kts
2026-05-05 14:35 46.73496 -2.38390 33903 ft 446 kts
2026-05-05 14:36 46.79625 -2.37370 33904 ft 446 kts
2026-05-05 14:36 46.85787 -2.36336 33903 ft 446 kts
2026-05-05 14:37 46.91925 -2.35006 33906 ft 445 kts 11°
2026-05-05 14:37 46.98025 -2.33504 33903 ft 445 kts 12°
2026-05-05 14:38 47.04121 -2.32004 33904 ft 444 kts 11°
2026-05-05 14:38 47.10235 -2.30528 33906 ft 444 kts 11°
2026-05-05 14:39 47.16342 -2.29063 33900 ft 444 kts 12°
2026-05-05 14:39 47.22399 -2.27611 33910 ft 443 kts 12°
2026-05-05 14:40 47.28483 -2.26148 33911 ft 442 kts 12°
2026-05-05 14:40 47.34559 -2.24680 33910 ft 442 kts 12°
2026-05-05 14:41 47.40640 -2.23208 33908 ft 443 kts 12°
2026-05-05 14:41 47.46736 -2.21729 33911 ft 444 kts 12°
2026-05-05 14:42 47.52797 -2.20255 33909 ft 444 kts 12°
2026-05-05 14:42 47.58891 -2.18771 33904 ft 443 kts 12°
2026-05-05 14:43 47.64989 -2.17282 33904 ft 443 kts 12°
2026-05-05 14:43 47.71071 -2.15792 33906 ft 443 kts 12°
2026-05-05 14:44 47.77161 -2.14301 33911 ft 443 kts 12°
2026-05-05 14:44 47.83248 -2.12834 33906 ft 444 kts 12°
2026-05-05 14:45 47.89319 -2.11321 33899 ft 445 kts 12°
2026-05-05 14:45 47.95438 -2.09792 33913 ft 446 kts 12°
2026-05-05 14:46 48.01601 -2.08259 33911 ft 446 kts 12°
2026-05-05 14:46 48.07689 -2.06748 33915 ft 447 kts 12°
2026-05-05 14:47 48.13831 -2.05220 33916 ft 447 kts 12°
2026-05-05 14:47 48.19964 -2.03689 33917 ft 447 kts 12°
2026-05-05 14:48 48.26097 -2.02153 33907 ft 447 kts 12°
2026-05-05 14:48 48.32237 -2.00613 33914 ft 447 kts 12°
2026-05-05 14:49 48.38370 -1.99071 33927 ft 447 kts 12°
2026-05-05 14:49 48.44499 -1.97526 33920 ft 447 kts 12°
2026-05-05 14:50 48.50643 -1.95973 33923 ft 448 kts 12°
2026-05-05 14:50 48.56768 -1.94422 33938 ft 448 kts 12°
2026-05-05 14:51 48.62919 -1.92860 33938 ft 448 kts 12°
2026-05-05 14:51 48.69068 -1.91295 33937 ft 448 kts 11°
2026-05-05 14:52 48.75227 -1.89723 33933 ft 448 kts 11°
2026-05-05 14:52 48.81387 -1.88148 33930 ft 448 kts 11°
2026-05-05 14:53 48.87546 -1.86596 33924 ft 449 kts 10°
2026-05-05 14:53 48.93745 -1.85335 33927 ft 449 kts
2026-05-05 14:54 48.99945 -1.84192 33928 ft 449 kts
2026-05-05 14:54 49.05101 -1.83228 33926 ft 449 kts
2026-05-05 14:55 49.12309 -1.81844 33931 ft 449 kts
2026-05-05 14:55 49.18495 -1.80641 33934 ft 448 kts
2026-05-05 14:56 49.23684 -1.79629 33933 ft 448 kts
2026-05-05 14:56 49.29829 -1.78429 33937 ft 448 kts
2026-05-05 14:57 49.36030 -1.77216 33935 ft 448 kts
2026-05-05 14:57 49.42213 -1.76004 33937 ft 448 kts
2026-05-05 14:58 49.48414 -1.74785 33944 ft 451 kts
2026-05-05 14:58 49.54701 -1.73542 33945 ft 463 kts
2026-05-05 14:59 49.61059 -1.71659 33947 ft 467 kts 18°
2026-05-05 14:59 49.67228 -1.68497 33943 ft 467 kts 20°
2026-05-05 15:00 49.72313 -1.65686 33941 ft 466 kts 21°
2026-05-05 15:00 49.76340 -1.63427 33840 ft 453 kts 20°
2026-05-05 15:00 49.79262 -1.61789 33634 ft 441 kts 20°
2026-05-05 15:01 49.82077 -1.60216 33393 ft 430 kts 20°
2026-05-05 15:01 49.84854 -1.58666 33159 ft 419 kts 20°
2026-05-05 15:01 49.87564 -1.57156 32970 ft 410 kts 20°
2026-05-05 15:01 49.90223 -1.55674 32821 ft 401 kts 20°
2026-05-05 15:02 49.92822 -1.54224 32689 ft 393 kts 20°
2026-05-05 15:02 49.95373 -1.52801 32555 ft 385 kts 20°
2026-05-05 15:02 49.97875 -1.51402 32384 ft 378 kts 20°
2026-05-05 15:02 50.00252 -1.50090 32244 ft 371 kts 19°
2026-05-05 15:03 50.02723 -1.48817 32104 ft 364 kts 18°
2026-05-05 15:03 50.05114 -1.47643 31965 ft 357 kts 18°
2026-05-05 15:03 50.07469 -1.46510 31831 ft 351 kts 18°
2026-05-05 15:03 50.09758 -1.45414 31696 ft 345 kts 18°
2026-05-05 15:04 50.12029 -1.44321 31562 ft 339 kts 18°
2026-05-05 15:04 50.14262 -1.43240 31451 ft 333 kts 18°
2026-05-05 15:04 50.16446 -1.42176 31306 ft 327 kts 18°
2026-05-05 15:04 50.18600 -1.41122 31190 ft 321 kts 18°
2026-05-05 15:05 50.22791 -1.39062 30951 ft 312 kts 18°
2026-05-05 15:05 50.24854 -1.38046 30673 ft 313 kts 18°
2026-05-05 15:05 50.26966 -1.37004 30071 ft 325 kts 19°
2026-05-05 15:06 50.29161 -1.35920 29371 ft 337 kts 19°
2026-05-05 15:06 50.31427 -1.34801 28722 ft 346 kts 19°
2026-05-05 15:06 50.33757 -1.33651 28061 ft 355 kts 18°
2026-05-05 15:06 50.36140 -1.32473 27358 ft 363 kts 18°
2026-05-05 15:07 50.38584 -1.31265 26629 ft 372 kts 18°
2026-05-05 15:07 50.41077 -1.30030 25872 ft 379 kts 18°
2026-05-05 15:07 50.43623 -1.28768 25006 ft 389 kts 17°
2026-05-05 15:07 50.46237 -1.27471 24148 ft 397 kts 17°
2026-05-05 15:08 50.48878 -1.26110 23263 ft 403 kts 20°
2026-05-05 15:08 50.51315 -1.24030 22358 ft 406 kts 35°
2026-05-05 15:08 50.53525 -1.21281 21580 ft 403 kts 39°
2026-05-05 15:08 50.55668 -1.18450 20949 ft 398 kts 40°
2026-05-05 15:09 50.57771 -1.15658 20281 ft 394 kts 40°
2026-05-05 15:09 50.59860 -1.12890 19712 ft 389 kts 40°
2026-05-05 15:09 50.61911 -1.10177 19167 ft 383 kts 40°
2026-05-05 15:09 50.63952 -1.07477 18481 ft 382 kts 40°
2026-05-05 15:10 50.65922 -1.04705 17832 ft 377 kts 46°
2026-05-05 15:10 50.67652 -1.01592 17102 ft 375 kts 50°
2026-05-05 15:10 50.69281 -0.98444 16588 ft 367 kts 51°
2026-05-05 15:10 50.70889 -0.95319 15851 ft 366 kts 51°
2026-05-05 15:11 50.72479 -0.92235 15360 ft 358 kts 51°
2026-05-05 15:11 50.74041 -0.89209 14879 ft 351 kts 51°
2026-05-05 15:11 50.75570 -0.86248 14479 ft 342 kts 51°
2026-05-05 15:11 50.77028 -0.83423 14263 ft 329 kts 51°
2026-05-05 15:12 50.78448 -0.80669 14037 ft 317 kts 51°
2026-05-05 15:12 50.79817 -0.78010 13853 ft 305 kts 51°
2026-05-05 15:12 50.80964 -0.75247 13441 ft 301 kts 66°
2026-05-05 15:12 50.81545 -0.72080 13060 ft 297 kts 77°
2026-05-05 15:13 50.81927 -0.68884 12581 ft 296 kts 79°
2026-05-05 15:13 50.82290 -0.65662 12038 ft 298 kts 79°
2026-05-05 15:13 50.82651 -0.62458 11615 ft 295 kts 79°
2026-05-05 15:13 50.83014 -0.59279 11203 ft 293 kts 79°
2026-05-05 15:14 50.83375 -0.56128 10937 ft 290 kts 79°
2026-05-05 15:14 50.83735 -0.52990 10724 ft 290 kts 79°
2026-05-05 15:14 50.84096 -0.49857 10495 ft 289 kts 78°
2026-05-05 15:14 50.84455 -0.46740 10295 ft 289 kts 79°
2026-05-05 15:15 50.84810 -0.43644 10062 ft 289 kts 78°
2026-05-05 15:15 50.85167 -0.40521 9840 ft 288 kts 79°
2026-05-05 15:15 50.85528 -0.37362 9615 ft 288 kts 79°
2026-05-05 15:15 50.85878 -0.34291 9388 ft 286 kts 79°
2026-05-05 15:16 50.86225 -0.31236 9227 ft 277 kts 79°
2026-05-05 15:16 50.86558 -0.28288 9013 ft 268 kts 79°
2026-05-05 15:16 50.86881 -0.25433 8820 ft 260 kts 79°
2026-05-05 15:16 50.87194 -0.22661 8623 ft 252 kts 78°
2026-05-05 15:17 50.87499 -0.19956 8431 ft 246 kts 78°
2026-05-05 15:17 50.87799 -0.17287 8241 ft 246 kts 78°
2026-05-05 15:17 50.88097 -0.14627 8014 ft 245 kts 78°
2026-05-05 15:17 50.88394 -0.11980 7859 ft 243 kts 78°
2026-05-05 15:18 50.88883 -0.09445 7693 ft 241 kts 60°
2026-05-05 15:18 50.89816 -0.07261 7540 ft 239 kts 51°
2026-05-05 15:18 50.90827 -0.05174 7396 ft 237 kts 51°
2026-05-05 15:18 50.91836 -0.03115 7248 ft 237 kts 51°
2026-05-05 15:19 50.92853 -0.01051 7110 ft 237 kts 51°
2026-05-05 15:19 50.93860 0.01018 6961 ft 236 kts 51°
2026-05-05 15:19 50.94862 0.03084 6827 ft 235 kts 51°
2026-05-05 15:19 50.95904 0.05075 6684 ft 234 kts 40°
2026-05-05 15:20 50.97337 0.06209 6542 ft 230 kts
2026-05-05 15:20 50.98885 0.05976 6400 ft 230 kts 339°
2026-05-05 15:20 51.00148 0.04449 6246 ft 233 kts 307°
2026-05-05 15:20 51.00743 0.02058 6085 ft 238 kts 279°
2026-05-05 15:21 51.00818 -0.00581 5905 ft 241 kts 273°
2026-05-05 15:21 51.00780 -0.03289 5742 ft 243 kts 270°
2026-05-05 15:21 51.00747 -0.05959 5590 ft 242 kts 271°
2026-05-05 15:21 51.00712 -0.08633 5429 ft 242 kts 271°
2026-05-05 15:22 51.00668 -0.11304 5283 ft 242 kts 271°
2026-05-05 15:22 51.00618 -0.13947 5128 ft 242 kts 270°
2026-05-05 15:22 51.00577 -0.16587 4979 ft 241 kts 271°
2026-05-05 15:22 51.00543 -0.19243 4830 ft 241 kts 271°
2026-05-05 15:23 51.00500 -0.21897 4679 ft 240 kts 271°
2026-05-05 15:23 51.00461 -0.24586 4516 ft 239 kts 271°
2026-05-05 15:23 51.00431 -0.27184 4355 ft 238 kts 271°
2026-05-05 15:23 51.00395 -0.29813 4159 ft 239 kts 271°
2026-05-05 15:24 51.00353 -0.32449 3881 ft 239 kts 271°
2026-05-05 15:24 51.00313 -0.35079 3621 ft 238 kts 271°
2026-05-05 15:24 51.00309 -0.37701 3366 ft 236 kts 278°
2026-05-05 15:24 51.00858 -0.40083 3116 ft 228 kts 309°
2026-05-05 15:25 51.01899 -0.41852 3010 ft 210 kts 319°
2026-05-05 15:25 51.02930 -0.43341 2988 ft 192 kts 321°
2026-05-05 15:25 51.03904 -0.44743 2995 ft 187 kts 320°
2026-05-05 15:25 51.04871 -0.46137 2993 ft 187 kts 320°
2026-05-05 15:26 51.05835 -0.47520 2999 ft 187 kts 321°
2026-05-05 15:26 51.06922 -0.48578 2993 ft 182 kts 351°
2026-05-05 15:26 51.08106 -0.48355 2996 ft 176 kts 28°
2026-05-05 15:26 51.09026 -0.47101 3007 ft 175 kts 48°
2026-05-05 15:27 51.09804 -0.45603 2998 ft 176 kts 50°
2026-05-05 15:27 51.10566 -0.44072 2999 ft 177 kts 51°
2026-05-05 15:27 51.11284 -0.42471 2998 ft 178 kts 58°
2026-05-05 15:27 51.11802 -0.40687 2801 ft 177 kts 70°
2026-05-05 15:28 51.12099 -0.38774 2554 ft 178 kts 75°
2026-05-05 15:28 51.12364 -0.36867 2304 ft 175 kts 76°
2026-05-05 15:28 51.12624 -0.34994 2043 ft 171 kts 75°
2026-05-05 15:28 51.12871 -0.33221 1828 ft 158 kts 75°
2026-05-05 15:29 51.13099 -0.31553 1629 ft 149 kts 75°
2026-05-05 15:29 51.13312 -0.30015 1445 ft 136 kts 76°
2026-05-05 15:29 51.13504 -0.28592 1198 ft 129 kts 76°
2026-05-05 15:29 51.13690 -0.27187 1064 ft 131 kts 76°
2026-05-05 15:30 51.13886 -0.25784 951 ft 130 kts 76°
2026-05-05 15:30 51.14085 -0.24409 730 ft 128 kts 76°
2026-05-05 15:30 51.14265 -0.23033 480 ft 127 kts 78°
2026-05-05 15:30 51.14460 -0.21617 372 ft 134 kts 77°
2026-05-05 15:31 51.14656 -0.20180 239 ft 130 kts 77°
2026-05-05 15:31 51.14842 -0.18831 306 ft 125 kts 77°
2026-05-05 15:31 51.15027 -0.17323 925 ft 151 kts 79°
2026-05-05 15:31 51.15241 -0.15399 1621 ft 196 kts 78°
2026-05-05 15:32 51.15455 -0.13312 2109 ft 195 kts 79°
2026-05-05 15:32 51.15673 -0.11146 2172 ft 199 kts 78°
2026-05-05 15:32 51.15723 -0.08940 2338 ft 203 kts 101°
2026-05-05 15:32 51.14989 -0.07016 2576 ft 210 kts 137°
2026-05-05 15:33 51.13633 -0.06201 2832 ft 217 kts 179°
2026-05-05 15:33 51.12152 -0.06891 3010 ft 229 kts 202°
2026-05-05 15:33 51.10823 -0.08340 2985 ft 238 kts 229°
2026-05-05 15:33 51.09874 -0.10531 2984 ft 241 kts 240°
2026-05-05 15:34 51.09030 -0.12829 2998 ft 240 kts 241°
2026-05-05 15:34 51.08197 -0.15126 3001 ft 240 kts 240°
2026-05-05 15:34 51.07368 -0.17420 2998 ft 238 kts 241°
2026-05-05 15:34 51.06539 -0.19704 2998 ft 241 kts 241°
2026-05-05 15:35 51.05674 -0.22080 3018 ft 259 kts 241°
2026-05-05 15:35 51.04773 -0.24566 3008 ft 265 kts 242°
2026-05-05 15:35 51.04156 -0.27312 2998 ft 265 kts 261°
2026-05-05 15:35 51.03912 -0.30196 3005 ft 263 kts 265°
2026-05-05 15:36 51.03719 -0.33089 2997 ft 262 kts 266°
2026-05-05 15:36 51.03533 -0.35960 2996 ft 262 kts 266°
2026-05-05 15:36 51.03353 -0.38847 3000 ft 262 kts 268°
2026-05-05 15:36 51.03623 -0.41661 2992 ft 258 kts 296°
2026-05-05 15:37 51.04675 -0.43882 2993 ft 248 kts 322°
2026-05-05 15:37 51.06032 -0.45388 2999 ft 228 kts 330°
2026-05-05 15:37 51.07321 -0.46644 3002 ft 205 kts 334°
2026-05-05 15:37 51.08610 -0.47046 2980 ft 181 kts 11°
2026-05-05 15:38 51.09682 -0.46133 3000 ft 176 kts 43°
2026-05-05 15:38 51.10487 -0.44676 2999 ft 176 kts 50°
2026-05-05 15:38 51.11203 -0.43108 3006 ft 178 kts 57°
2026-05-05 15:38 51.11719 -0.41319 2885 ft 177 kts 71°
2026-05-05 15:39 51.12009 -0.39438 2631 ft 173 kts 75°
2026-05-05 15:39 51.12267 -0.37580 2388 ft 170 kts 76°
2026-05-05 15:39 51.12512 -0.35803 2168 ft 159 kts 75°
2026-05-05 15:39 51.12747 -0.34113 1951 ft 155 kts 75°
2026-05-05 15:40 51.12979 -0.32439 1739 ft 152 kts 75°
2026-05-05 15:40 51.13197 -0.30856 1520 ft 142 kts 75°
2026-05-05 15:40 51.13337 -0.29831 1406 ft 138 kts 76°
2026-05-05 15:40 51.13538 -0.28350 1218 ft 137 kts 75°
2026-05-05 15:41 51.13745 -0.26871 967 ft 138 kts 77°
2026-05-05 15:41 51.13945 -0.25395 781 ft 134 kts 77°
2026-05-05 15:41 51.14140 -0.23944 649 ft 135 kts 76°
2026-05-05 15:41 51.14333 -0.22493 471 ft 137 kts 77°
2026-05-05 15:42 51.14544 -0.21013 298 ft 137 kts 77°
2026-05-05 15:42 51.14745 -0.19556 217 ft 130 kts 77°
2026-05-05 15:42 51.14900 -0.18415 218 ft 81 kts 78°
2026-05-05 15:42 51.15009 -0.17885 223 ft 26 kts 52°
2026-05-05 15:43 51.15105 -0.17760 214 ft 12 kts
2026-05-05 15:43 51.15177 -0.17770 219 ft 10 kts 354°
2026-05-05 15:43 51.15230 -0.17768 219 ft 9 kts 20°
2026-05-05 15:43 51.15275 -0.17644 214 ft 17 kts 75°
2026-05-05 15:44 51.15299 -0.17471 212 ft 15 kts 79°
2026-05-05 15:44 51.15331 -0.17377 218 ft 8 kts 26°
2026-05-05 15:44 51.15377 -0.17379 218 ft 7 kts 353°
2026-05-05 15:44 51.15421 -0.17392 213 ft 6 kts 347°
2026-05-05 15:45 51.15464 -0.17409 214 ft 6 kts 346°
2026-05-05 15:45 51.15500 -0.17423 214 ft 9 kts 346°
2026-05-05 15:45 51.15578 -0.17430 214 ft 10 kts 27°
2026-05-05 15:45 51.15604 -0.17338 216 ft 8 kts 75°
2026-05-05 15:46 51.15615 -0.17253 217 ft 8 kts 78°
2026-05-05 15:46 51.15626 -0.17172 217 ft 7 kts 78°
2026-05-05 15:46 51.15636 -0.17096 214 ft 7 kts 78°
2026-05-05 15:46 51.15684 -0.17034 217 ft 11 kts 355°
2026-05-05 15:47 51.15755 -0.17060 213 ft 10 kts 346°
2026-05-05 15:47 51.15824 -0.17079 210 ft 10 kts 358°
2026-05-05 15:47 51.15891 -0.17060 220 ft 10 kts 20°
2026-05-05 15:47 51.15911 -0.16997 216 ft 5 kts 119°
2026-05-05 15:48 51.15889 -0.16950 217 ft 5 kts 128°
2026-05-05 15:48 51.15874 -0.16920 219 ft 0 kts 129°